This demonstration page uses our WeatherBlox Daily Observations layout. Learn more.

Left ArrowRight Arrow

Hourly Observations for July 12, 2022

Temp ( °F °C ) Dew Point ( °F °C ) Humidity (%) Winds ( mph kmh ) Pressure ( in mb ) Visibility ( mi km ) Precip ( " mm )
12:53 am 00:53 Clear 89 31.7 65 18.3 45 45 ESE 8 13 29.85 1011 10 16 0.00 0.00
1:53 am 01:53 Clear 87 30.6 66 18.9 50 50 E 7 11 29.84 1011 10 16 0.00 0.00
2:53 am 02:53 Clear 86 30 67 19.4 53 53 E 5 7 29.84 1011 10 16 0.00 0.00
3:53 am 03:53 Clear 85 29.4 67 19.4 55 55 E 5 7 29.84 1011 10 16 0.00 0.00
4:53 am 04:53 Clear 83 28.3 68 20 61 61 E 5 7 29.84 1010 10 16 0.00 0.00
5:53 am 05:53 Clear 82 27.8 69 20.6 65 65 E 5 7 29.85 1011 10 16 0.00 0.00
6:53 am 06:53 Mostly Sunny 82 27.8 69 20.6 65 65 E 5 7 29.86 1011 10 16 0.00 0.00
7:53 am 07:53 Mostly Sunny 84 28.9 71 21.7 65 65 ENE 3 6 29.88 1012 10 16 0.00 0.00
8:53 am 08:53 Mostly Sunny 87 30.6 72 22.2 61 61 ENE 3 6 29.90 1012 10 16 0.00 0.00
9:53 am 09:53 Mostly Sunny 90 32.2 72 22.2 56 56 ENE 5 7 29.90 1013 10 16 0.00 0.00
10:53 am 10:53 Mostly Sunny 93 33.9 73 22.8 52 52 VRB 5 7 29.90 1012 10 16 0.00 0.00
11:53 am 11:53 Mostly Sunny 97 36.1 65 18.3 35 35 NE 9 15 29.91 1013 10 16 0.00 0.00
12:53 pm 12:53 Mostly Sunny 100 37.8 63 17.2 30 30 NNE 13 20 29.89 1012 10 16 0.00 0.00
1:53 pm 13:53 Mostly Sunny 101 38.3 59 15 25 25 NE 13 20 29.88 1012 10 16 0.00 0.00
2:53 pm 14:53 Mostly Sunny 101 38.3 62 16.7 28 28 NE 16 26 29.86 1011 10 16 0.00 0.00
3:53 pm 15:53 Mostly Sunny 102 38.9 63 17.2 28 28 NE 12 19 29.85 1011 10 16 0.00 0.00
4:53 pm 16:53 Mostly Sunny 102 38.9 62 16.7 27 27 ENE 10 17 29.84 1010 10 16 0.00 0.00
5:53 pm 17:53 Mostly Sunny 102 38.9 62 16.7 27 27 ENE 9 15 29.83 1010 10 16 0.00 0.00
6:53 pm 18:53 Mostly Sunny 101 38.3 63 17.2 29 29 E 7 11 29.82 1010 10 16 0.00 0.00
7:53 pm 19:53 Mostly Sunny 99 37.2 62 16.7 30 30 ENE 6 9 29.82 1010 10 16 0.00 0.00
8:53 pm 20:53 Mostly Clear 97 36.1 59 15 28 28 E 5 7 29.83 1010 10 16 0.00 0.00
9:53 pm 21:53 Mostly Clear 94 34.4 61 16.1 33 33 E 3 6 29.85 1011 10 16 0.00 0.00
10:53 pm 22:53 Mostly Clear 93 33.9 61 16.1 34 34 E 6 9 29.87 1012 10 16 0.00 0.00
11:53 pm 23:53 Mostly Clear 91 32.8 62 16.7 38 38 E 6 9 29.89 1012 10 16 0.00 0.00

Powered by AerisWeather